Cuney, TX

1:42 PM CDT on August 30, 2016 (GMT -0500)
Cherokee County

Weather History for KJSO - October, 2013

Change the Weather History Date:

Sunday, October 13, 2013

  Actual Average (KTYR) Record (KTYR)
Temperature  
Mean Temperature 69 °F 68 °F  
Max Temperature 71 °F 79 °F 94 °F (1963)
Min Temperature 67 °F 57 °F 33 °F (1977)
Degree Days  
Heating Degree Days 0 1  
Month to date heating degree days 13  
Since 1 July heating degree days 18  
Cooling Degree Days 4 4  
Month to date cooling degree days 74  
Year to date cooling degree days 2338  
Growing Degree Days 19 (Base 50)    
Moisture  
Dew Point 67 °F    
Average Humidity 93    
Maximum Humidity 98    
Minimum Humidity 85    
Precipitation  
Precipitation 0.02 in 0.16 in 3.94 in (1943)
Month to date precipitation 1.80  
Year to date precipitation 34.40  
Snow  
Snow 0.00 in - - ()
Month to date snowfall  
Since 1 July snowfall  
Since 1 September snowfall  
Snow Depth -    
Sea Level Pressure  
Sea Level Pressure 30.16 in    
Wind  
Wind Speed 5 mph (East)    
Max Wind Speed 10 mph    
Max Gust Speed -    
Visibility 8 miles    
Events Rain    
T = Trace of Precipitation, MM = Missing Value Source: NWS Daily Summary

Daily Weather History Graph

Daily Weather History Graph

Search for Another Location

Airport or City:

Trip Planner

Search our weather history database for the weather conditions in past years. The results will help you decide how hot, cold, wet, or windy it might be!

Date:

Astronomy

Oct. 13, 2013 Rise Set
Actual Time 7:22 AM CDT 6:50 PM CDT
Civil Twilight 6:58 AM CDT 7:15 PM CDT
Nautical Twilight 6:30 AM CDT 7:43 PM CDT
Astronomical Twilight 6:01 AM CDT 8:11 PM CDT
Moon 3:25 PM CDT (10/13) 1:53 AM CDT (10/13)
Length of Visible Light 12h 16m
Length of Day
11h 27m
Waxing Gibbous, 69% of the Moon is Illuminated
Oct 13
Waxing Gibbous
Oct 18
Full
Oct 26
Last Quarter
Nov 3
New
Nov 9
First Quarter

Hourly Weather History & Observations

Time (CDT) Temp. Dew Point Humidity Pressure Visibility Wind Dir Wind Speed Gust Speed Precip Events Conditions
12:15 AM 67.8 °F 66.7 °F 96% 30.11 in 7.0 mi Calm Calm - N/A   Clear
12:35 AM 67.8 °F 66.7 °F 96% 30.09 in 7.0 mi ESE 3.5 mph - N/A   Clear
12:55 AM 68.0 °F 67.1 °F 97% 30.09 in 7.0 mi SE 5.8 mph - N/A   Clear
1:15 AM 68.0 °F 67.1 °F 97% 30.09 in 10.0 mi SSE 6.9 mph - N/A   Clear
1:35 AM 68.0 °F 67.1 °F 97% 30.10 in 7.0 mi South 6.9 mph - N/A   Scattered Clouds
1:55 AM 68.0 °F 67.1 °F 97% 30.11 in 7.0 mi South 10.4 mph - N/A   Overcast
2:15 AM 68.2 °F 67.1 °F 96% 30.11 in 7.0 mi South 6.9 mph - N/A   Overcast
2:35 AM 68.0 °F 67.1 °F 97% 30.10 in 7.0 mi South 5.8 mph - N/A   Overcast
2:55 AM 68.0 °F 67.1 °F 97% 30.10 in 7.0 mi South 6.9 mph - N/A   Scattered Clouds
3:15 AM 68.2 °F 67.1 °F 96% 30.11 in 10.0 mi SSW 5.8 mph - N/A   Clear
3:35 AM 68.0 °F 67.1 °F 97% 30.11 in 7.0 mi Calm Calm - N/A   Clear
3:55 AM 68.0 °F 67.1 °F 97% 30.12 in 10.0 mi Calm Calm - N/A   Clear
4:15 AM 68.0 °F 66.9 °F 96% 30.11 in 10.0 mi South 4.6 mph - N/A   Scattered Clouds
4:35 AM 68.0 °F 67.1 °F 97% 30.11 in 10.0 mi South 3.5 mph - N/A   Mostly Cloudy
4:55 AM 68.0 °F 67.1 °F 97% 30.11 in 7.0 mi South 5.8 mph - N/A   Overcast
5:15 AM 68.0 °F 67.1 °F 97% 30.11 in 7.0 mi SSW 5.8 mph - N/A   Overcast
5:35 AM 68.0 °F 67.1 °F 97% 30.11 in 7.0 mi South 5.8 mph - N/A   Mostly Cloudy
5:55 AM 68.0 °F 67.1 °F 97% 30.11 in 5.0 mi South 5.8 mph - N/A Rain Light Rain
6:15 AM 68.0 °F 67.1 °F 97% 30.14 in 7.0 mi North 5.8 mph - N/A   Light Drizzle
6:35 AM 67.8 °F 67.1 °F 98% 30.13 in 5.0 mi ENE 5.8 mph - N/A   Light Drizzle
6:55 AM 67.6 °F 67.1 °F 98% 30.14 in 1.5 mi NNE 3.5 mph - N/A   Overcast
7:15 AM 67.5 °F 66.7 °F 98% 30.15 in 5.0 mi ENE 4.6 mph - N/A   Scattered Clouds
7:35 AM 67.6 °F 67.1 °F 98% 30.17 in 5.0 mi NNE 3.5 mph - N/A   Mostly Cloudy
7:55 AM 67.6 °F 67.1 °F 98% 30.17 in 5.0 mi NE 4.6 mph - N/A Rain Light Rain
8:15 AM 68.0 °F 67.1 °F 97% 30.18 in 3.0 mi ENE 4.6 mph - 0.01 in   Overcast
8:35 AM 67.6 °F 67.1 °F 98% 30.19 in 1.0 mi NE 6.9 mph - 0.01 in Rain Light Rain
8:55 AM 67.5 °F 66.9 °F 98% 30.21 in 1.0 mi NE 6.9 mph - 0.01 in Rain Light Rain
9:15 AM 67.6 °F 66.9 °F 98% 30.21 in 2.5 mi East 8.1 mph - N/A Rain Light Rain
9:35 AM 67.8 °F 67.1 °F 98% 30.22 in 4.0 mi ENE 4.6 mph - 0.01 in Rain Rain
9:55 AM 67.8 °F 66.9 °F 97% 30.22 in 5.0 mi East 9.2 mph - 0.01 in   Overcast
10:15 AM 68.0 °F 67.1 °F 97% 30.22 in 5.0 mi East 8.1 mph - N/A   Overcast
10:35 AM 68.0 °F 66.9 °F 96% 30.22 in 7.0 mi ENE 6.9 mph - N/A   Overcast
10:55 AM 68.0 °F 66.7 °F 96% 30.22 in 7.0 mi ENE 6.9 mph - N/A   Overcast
11:15 AM 68.2 °F 66.7 °F 95% 30.22 in 7.0 mi ENE 5.8 mph - N/A   Overcast
11:35 AM 68.4 °F 67.1 °F 96% 30.22 in 7.0 mi ENE 5.8 mph - N/A   Overcast
11:55 AM 68.4 °F 66.7 °F 95% 30.23 in 7.0 mi ESE 5.8 mph - N/A   Overcast
12:15 PM 68.5 °F 66.7 °F 94% 30.22 in 7.0 mi ENE 6.9 mph - N/A   Overcast
12:35 PM 68.9 °F 67.1 °F 94% 30.22 in 5.0 mi East 8.1 mph - N/A   Overcast
12:55 PM 68.9 °F 67.1 °F 94% 30.21 in 5.0 mi NE 5.8 mph - N/A   Overcast
1:15 PM 69.3 °F 67.1 °F 93% 30.20 in 7.0 mi ENE 6.9 mph - N/A   Overcast
1:35 PM 69.8 °F 67.1 °F 91% 30.19 in 7.0 mi ENE 8.1 mph - N/A   Overcast
1:55 PM 70.2 °F 66.7 °F 89% 30.18 in 10.0 mi East 4.6 mph - N/A   Mostly Cloudy
2:15 PM 70.5 °F 66.7 °F 88% 30.17 in 10.0 mi NE 10.4 mph - N/A   Overcast
2:35 PM 70.9 °F 66.6 °F 86% 30.16 in 10.0 mi ENE 6.9 mph - N/A   Overcast
2:55 PM 71.2 °F 66.6 °F 85% 30.15 in 10.0 mi East 8.1 mph - N/A   Mostly Cloudy
3:15 PM 70.7 °F 66.2 °F 86% 30.16 in 10.0 mi East 5.8 mph - N/A   Overcast
3:35 PM 70.9 °F 66.4 °F 86% 30.16 in 10.0 mi East 6.9 mph - N/A   Overcast
3:55 PM 71.6 °F 66.9 °F 85% 30.15 in 10.0 mi ENE 6.9 mph - N/A   Overcast
4:15 PM 71.1 °F 67.1 °F 87% 30.15 in 10.0 mi ENE 4.6 mph - N/A   Overcast
4:35 PM 71.1 °F 66.9 °F 87% 30.15 in 10.0 mi NE 3.5 mph - N/A   Overcast
4:55 PM 71.8 °F 67.3 °F 86% 30.15 in 10.0 mi ENE 4.6 mph - N/A   Overcast
5:15 PM 71.6 °F 67.1 °F 86% 30.15 in 10.0 mi NE 4.6 mph - N/A   Overcast
5:35 PM 71.6 °F 67.1 °F 86% 30.15 in 10.0 mi NE 5.8 mph - N/A   Overcast
5:55 PM 71.2 °F 67.3 °F 87% 30.16 in 10.0 mi ENE 4.6 mph - N/A   Overcast
6:15 PM 70.9 °F 67.3 °F 88% 30.16 in 10.0 mi NE 3.5 mph - N/A   Overcast
6:35 PM 70.7 °F 67.3 °F 89% 30.16 in 10.0 mi NE 5.8 mph - N/A   Overcast
6:55 PM 70.5 °F 67.1 °F 89% 30.16 in 10.0 mi NE 6.9 mph - N/A   Overcast
7:15 PM 70.2 °F 67.1 °F 90% 30.16 in 10.0 mi ENE 5.8 mph - N/A   Overcast
7:35 PM 70.2 °F 67.1 °F 90% 30.16 in 10.0 mi ENE 5.8 mph - N/A   Overcast
7:55 PM 70.2 °F 66.6 °F 88% 30.17 in 10.0 mi ENE 4.6 mph - N/A   Overcast
8:15 PM 70.0 °F 66.6 °F 89% 30.17 in 10.0 mi East 4.6 mph - N/A   Overcast
8:35 PM 69.8 °F 66.6 °F 89% 30.17 in 10.0 mi East 6.9 mph - N/A   Overcast
8:55 PM 69.4 °F 66.6 °F 91% 30.18 in 10.0 mi East 4.6 mph - N/A   Scattered Clouds
9:15 PM 69.8 °F 66.7 °F 90% 30.18 in 10.0 mi East 4.6 mph - N/A   Mostly Cloudy
9:35 PM 69.4 °F 66.7 °F 91% 30.18 in 10.0 mi East 4.6 mph - N/A   Scattered Clouds
9:55 PM 69.4 °F 67.1 °F 92% 30.18 in 10.0 mi ENE 4.6 mph - N/A   Scattered Clouds
10:15 PM 69.4 °F 66.9 °F 92% 30.18 in 10.0 mi East 4.6 mph - N/A   Mostly Cloudy
10:35 PM 69.3 °F 66.9 °F 92% 30.18 in 10.0 mi East 5.8 mph - N/A   Scattered Clouds
10:55 PM 69.3 °F 67.1 °F 93% 30.18 in 10.0 mi ENE 5.8 mph - N/A   Scattered Clouds
11:15 PM 68.9 °F 67.1 °F 94% 30.18 in 10.0 mi NE 5.8 mph - N/A   Overcast
11:35 PM 68.5 °F 66.7 °F 94% 30.17 in 10.0 mi NE 5.8 mph - N/A   Overcast
11:55 PM 68.9 °F 67.1 °F 94% 30.17 in 10.0 mi NNE 5.8 mph - N/A   Overcast